Time,TemperatureF,DewpointF,PressureIn,WindDirection,WindDirectionDegrees,WindSpeedMPH,WindSpeedGustMPH,Humidity,HourlyPrecipIn,Conditions,Clouds,dailyrainin,SoftwareType,DateUTC
2013-08-24 00:01:00,66.7,57.4,30.14,North,0,6.0,11.0,72,0.00,,,0.00,meteohub,2013-08-24 04:01:00,
2013-08-24 00:02:00,66.7,57.4,30.14,North,0,5.0,11.0,72,0.00,,,0.00,meteohub,2013-08-24 04:02:00,
2013-08-24 00:04:00,66.6,57.6,30.14,North,0,6.0,11.0,73,0.00,,,0.00,meteohub,2013-08-24 04:04:00,
2013-08-24 00:06:00,66.6,57.6,30.14,SE,132,7.0,11.0,73,0.00,,,0.00,meteohub,2013-08-24 04:06:00,
2013-08-24 00:11:00,66.6,57.2,30.14,SE,127,9.0,11.0,72,0.00,,,0.00,meteohub,2013-08-24 04:11:00,
2013-08-24 00:17:00,66.6,57.2,30.14,North,0,5.0,11.0,72,0.00,,,0.00,meteohub,2013-08-24 04:17:00,
2013-08-24 00:22:00,66.0,56.7,30.14,SSE,151,6.0,11.0,72,0.00,,,0.00,meteohub,2013-08-24 04:22:00,
2013-08-24 00:27:00,65.8,57.0,30.14,SSE,151,9.0,11.0,73,0.00,,,0.00,meteohub,2013-08-24 04:27:00,
2013-08-24 00:32:00,65.7,56.8,30.15,SSE,150,6.0,11.0,73,0.00,,,0.00,meteohub,2013-08-24 04:32:00,
2013-08-24 00:37:00,65.7,56.8,30.15,SE,136,9.0,11.0,73,0.00,,,0.00,meteohub,2013-08-24 04:37:00,
2013-08-24 00:42:00,65.7,56.8,30.15,North,0,12.0,13.0,73,0.00,,,0.00,meteohub,2013-08-24 04:42:00,
2013-08-24 00:47:00,65.7,56.8,30.15,North,0,11.0,14.0,73,0.00,,,0.00,meteohub,2013-08-24 04:47:00,
2013-08-24 00:52:00,65.5,57.0,30.16,North,0,10.0,14.0,74,0.00,,,0.00,meteohub,2013-08-24 04:52:00,
2013-08-24 00:57:00,65.5,57.4,30.16,North,0,12.0,14.0,75,0.00,,,0.00,meteohub,2013-08-24 04:57:00,
2013-08-24 01:03:00,65.5,57.0,30.15,SE,139,13.0,14.0,74,0.00,,,0.00,meteohub,2013-08-24 05:03:00,
2013-08-24 01:08:00,65.5,56.7,30.15,SE,144,12.0,14.0,73,0.00,,,0.00,meteohub,2013-08-24 05:08:00,
2013-08-24 01:13:00,65.5,57.0,30.15,North,0,10.0,15.0,74,0.00,,,0.00,meteohub,2013-08-24 05:13:00,
2013-08-24 01:18:00,65.3,57.2,30.15,SSE,150,13.0,15.0,75,0.00,,,0.00,meteohub,2013-08-24 05:18:00,
2013-08-24 01:23:00,65.1,57.4,30.15,SSE,147,9.0,15.0,76,0.00,,,0.00,meteohub,2013-08-24 05:23:00,
2013-08-24 01:28:00,65.1,57.0,30.15,SE,146,10.0,15.0,75,0.00,,,0.00,meteohub,2013-08-24 05:28:00,
2013-08-24 01:33:00,64.9,56.5,30.15,SE,140,13.0,15.0,74,0.00,,,0.00,meteohub,2013-08-24 05:33:00,
2013-08-24 01:38:00,64.9,56.8,30.15,SE,142,10.0,15.0,75,0.00,,,0.00,meteohub,2013-08-24 05:38:00,
2013-08-24 01:43:00,64.6,56.8,30.16,SSE,149,11.0,13.0,76,0.00,,,0.00,meteohub,2013-08-24 05:43:00,
2013-08-24 01:48:00,64.2,56.8,30.16,SSE,147,10.0,13.0,77,0.00,,,0.00,meteohub,2013-08-24 05:48:00,
2013-08-24 01:53:00,64.0,56.7,30.16,SSE,153,9.0,13.0,77,0.00,,,0.00,meteohub,2013-08-24 05:53:00,
2013-08-24 01:58:00,63.9,56.5,30.15,South,171,8.0,13.0,77,0.00,,,0.00,meteohub,2013-08-24 05:58:00,
2013-08-24 02:03:00,63.9,56.5,30.16,SSE,148,11.0,13.0,77,0.00,,,0.00,meteohub,2013-08-24 06:03:00,
2013-08-24 02:08:00,63.9,56.5,30.16,SSE,148,9.0,13.0,77,0.00,,,0.00,meteohub,2013-08-24 06:08:00,
2013-08-24 02:14:00,64.0,56.7,30.16,SSE,157,10.0,14.0,77,0.00,,,0.00,meteohub,2013-08-24 06:14:00,
2013-08-24 02:19:00,63.9,56.5,30.16,SE,141,7.0,14.0,77,0.00,,,0.00,meteohub,2013-08-24 06:19:00,
2013-08-24 02:24:00,63.9,56.8,30.16,SSE,150,12.0,13.0,78,0.00,,,0.00,meteohub,2013-08-24 06:24:00,
2013-08-24 02:29:00,63.9,56.5,30.16,SE,143,10.0,13.0,77,0.00,,,0.00,meteohub,2013-08-24 06:29:00,
2013-08-24 02:34:00,63.7,56.7,30.16,SSE,147,13.0,13.0,78,0.00,,,0.00,meteohub,2013-08-24 06:34:00,
2013-08-24 02:39:00,63.7,56.7,30.16,SSE,157,7.0,13.0,78,0.00,,,0.00,meteohub,2013-08-24 06:39:00,
2013-08-24 02:44:00,63.7,57.0,30.16,SSE,149,9.0,14.0,79,0.00,,,0.00,meteohub,2013-08-24 06:44:00,
2013-08-24 02:49:00,63.7,57.0,30.16,SSE,150,6.0,14.0,79,0.00,,,0.00,meteohub,2013-08-24 06:49:00,
2013-08-24 02:54:00,63.5,56.8,30.17,SSE,150,7.0,14.0,79,0.00,,,0.00,meteohub,2013-08-24 06:54:00,
2013-08-24 02:59:00,63.3,56.7,30.17,SSE,164,9.0,13.0,79,0.00,,,0.00,meteohub,2013-08-24 06:59:00,
2013-08-24 03:04:00,63.3,56.7,30.17,SE,139,6.0,13.0,79,0.00,,,0.00,meteohub,2013-08-24 07:04:00,
2013-08-24 03:09:00,63.3,57.0,30.17,North,0,7.0,11.0,80,0.00,,,0.00,meteohub,2013-08-24 07:09:00,
2013-08-24 03:14:00,63.1,56.8,30.17,SSE,161,10.0,13.0,80,0.00,,,0.00,meteohub,2013-08-24 07:14:00,
2013-08-24 03:19:00,63.1,56.5,30.17,SSE,156,12.0,13.0,79,0.00,,,0.00,meteohub,2013-08-24 07:19:00,
2013-08-24 03:25:00,63.1,56.8,30.17,SSE,156,7.0,13.0,80,0.00,,,0.00,meteohub,2013-08-24 07:25:00,
2013-08-24 03:30:00,63.0,56.7,30.17,SE,145,7.0,13.0,80,0.00,,,0.00,meteohub,2013-08-24 07:30:00,
2013-08-24 03:35:00,63.0,57.0,30.17,North,0,10.0,12.0,81,0.00,,,0.00,meteohub,2013-08-24 07:35:00,
2013-08-24 03:40:00,63.0,56.7,30.17,North,0,10.0,12.0,80,0.00,,,0.00,meteohub,2013-08-24 07:40:00,
2013-08-24 03:45:00,62.8,56.8,30.17,SE,143,10.0,15.0,81,0.00,,,0.00,meteohub,2013-08-24 07:45:00,
2013-08-24 03:50:00,62.8,56.5,30.17,ESE,122,8.0,15.0,80,0.00,,,0.00,meteohub,2013-08-24 07:50:00,
2013-08-24 03:55:00,62.8,56.5,30.17,SSE,155,10.0,15.0,80,0.00,,,0.00,meteohub,2013-08-24 07:55:00,
2013-08-24 04:00:00,62.8,56.5,30.18,SE,143,11.0,15.0,80,0.00,,,0.00,meteohub,2013-08-24 08:00:00,
2013-08-24 04:05:00,62.8,56.5,30.18,SSE,148,10.0,15.0,80,0.00,,,0.00,meteohub,2013-08-24 08:05:00,
2013-08-24 04:10:00,62.6,56.7,30.18,SE,146,11.0,15.0,81,0.00,,,0.00,meteohub,2013-08-24 08:10:00,
2013-08-24 04:15:00,62.4,56.5,30.18,SE,143,9.0,15.0,81,0.00,,,0.00,meteohub,2013-08-24 08:15:00,
2013-08-24 04:20:00,62.4,56.8,30.19,SE,141,11.0,15.0,82,0.00,,,0.00,meteohub,2013-08-24 08:20:00,
2013-08-24 04:25:00,62.2,56.3,30.18,SSE,156,11.0,15.0,81,0.00,,,0.00,meteohub,2013-08-24 08:25:00,
2013-08-24 04:31:00,62.1,56.1,30.18,SSE,153,12.0,15.0,81,0.00,,,0.00,meteohub,2013-08-24 08:31:00,
2013-08-24 04:36:00,62.1,56.1,30.18,SE,144,9.0,15.0,81,0.00,,,0.00,meteohub,2013-08-24 08:36:00,
2013-08-24 04:41:00,62.1,56.1,30.18,SE,146,10.0,15.0,81,0.00,,,0.00,meteohub,2013-08-24 08:41:00,
2013-08-24 04:47:00,61.9,55.9,30.18,SE,138,10.0,15.0,81,0.00,,,0.00,meteohub,2013-08-24 08:47:00,
2013-08-24 04:52:00,61.9,55.9,30.19,SSE,157,12.0,15.0,81,0.00,,,0.00,meteohub,2013-08-24 08:52:00,
2013-08-24 04:57:00,61.9,55.9,30.19,SSE,150,12.0,16.0,81,0.00,,,0.00,meteohub,2013-08-24 08:57:00,
2013-08-24 05:02:00,61.7,56.1,30.19,SSE,150,14.0,16.0,82,0.00,,,0.00,meteohub,2013-08-24 09:02:00,
2013-08-24 05:07:00,61.5,55.6,30.19,SE,144,10.0,16.0,81,0.00,,,0.00,meteohub,2013-08-24 09:07:00,
2013-08-24 05:12:00,61.5,55.9,30.19,SE,140,12.0,14.0,82,0.00,,,0.00,meteohub,2013-08-24 09:12:00,
2013-08-24 05:17:00,61.5,56.3,30.19,SSE,156,12.0,14.0,83,0.00,,,0.00,meteohub,2013-08-24 09:17:00,
2013-08-24 05:22:00,61.3,55.8,30.19,SSE,152,14.0,14.0,82,0.00,,,0.00,meteohub,2013-08-24 09:22:00,
2013-08-24 05:27:00,61.3,55.8,30.19,SSE,148,12.0,14.0,82,0.00,,,0.00,meteohub,2013-08-24 09:27:00,
2013-08-24 05:32:00,61.3,55.8,30.19,SE,142,10.0,16.0,82,0.00,,,0.00,meteohub,2013-08-24 09:32:00,
2013-08-24 05:37:00,61.2,55.6,30.19,North,0,10.0,16.0,82,0.00,,,0.00,meteohub,2013-08-24 09:37:00,
2013-08-24 05:42:00,61.3,55.8,30.19,SSE,168,11.0,15.0,82,0.00,,,0.00,meteohub,2013-08-24 09:42:00,
2013-08-24 05:47:00,61.2,55.6,30.19,SE,138,12.0,15.0,82,0.00,,,0.00,meteohub,2013-08-24 09:47:00,
2013-08-24 05:52:00,61.3,55.8,30.19,SSE,147,12.0,14.0,82,0.00,,,0.00,meteohub,2013-08-24 09:52:00,
2013-08-24 05:57:00,61.3,55.8,30.19,SSE,147,10.0,14.0,82,0.00,,,0.00,meteohub,2013-08-24 09:57:00,
2013-08-24 06:02:00,61.2,55.6,30.20,SSE,159,9.0,14.0,82,0.00,,,0.00,meteohub,2013-08-24 10:02:00,
2013-08-24 06:07:00,61.0,55.4,30.20,SE,144,8.0,14.0,82,0.00,,,0.00,meteohub,2013-08-24 10:07:00,
2013-08-24 06:12:00,61.0,55.4,30.21,SSE,155,13.0,14.0,82,0.00,,,0.00,meteohub,2013-08-24 10:12:00,
2013-08-24 06:17:00,61.0,55.4,30.21,SE,140,9.0,14.0,82,0.00,,,0.00,meteohub,2013-08-24 10:17:00,
2013-08-24 06:23:00,61.0,55.4,30.21,SSE,155,10.0,13.0,82,0.00,,,0.00,meteohub,2013-08-24 10:23:00,
2013-08-24 06:28:00,60.8,55.6,30.22,SSE,161,6.0,13.0,83,0.00,,,0.00,meteohub,2013-08-24 10:28:00,
2013-08-24 06:33:00,60.6,55.8,30.22,SSE,162,7.0,15.0,84,0.00,,,0.00,meteohub,2013-08-24 10:33:00,
2013-08-24 06:38:00,60.6,55.4,30.22,SSE,165,8.0,15.0,83,0.00,,,0.00,meteohub,2013-08-24 10:38:00,
2013-08-24 06:43:00,60.4,55.2,30.22,SSE,158,8.0,15.0,83,0.00,,,0.00,meteohub,2013-08-24 10:43:00,
2013-08-24 06:48:00,60.4,55.2,30.22,SSE,157,10.0,13.0,83,0.00,,,0.00,meteohub,2013-08-24 10:48:00,
2013-08-24 06:53:00,60.4,55.2,30.23,SE,143,10.0,13.0,83,0.00,,,0.00,meteohub,2013-08-24 10:53:00,
2013-08-24 06:58:00,60.4,55.2,30.23,SSE,159,12.0,14.0,83,0.00,,,0.00,meteohub,2013-08-24 10:58:00,
2013-08-24 07:03:00,60.4,55.2,30.23,SSE,150,11.0,14.0,83,0.00,,,0.00,meteohub,2013-08-24 11:03:00,
2013-08-24 07:08:00,60.6,55.8,30.23,SE,135,10.0,15.0,84,0.00,,,0.00,meteohub,2013-08-24 11:08:00,
2013-08-24 07:13:00,60.6,55.4,30.23,SSE,149,13.0,16.0,83,0.00,,,0.00,meteohub,2013-08-24 11:13:00,
2013-08-24 07:18:00,60.6,55.4,30.23,North,0,11.0,16.0,83,0.00,,,0.00,meteohub,2013-08-24 11:18:00,
2013-08-24 07:23:00,61.0,55.8,30.24,SSE,155,10.0,15.0,83,0.00,,,0.00,meteohub,2013-08-24 11:23:00,
2013-08-24 07:28:00,61.2,55.6,30.24,SE,144,10.0,15.0,82,0.00,,,0.00,meteohub,2013-08-24 11:28:00,
2013-08-24 07:34:00,61.3,55.8,30.24,SSE,153,11.0,15.0,82,0.00,,,0.00,meteohub,2013-08-24 11:34:00,
2013-08-24 07:39:00,61.5,55.6,30.24,SSE,150,9.0,15.0,81,0.00,,,0.00,meteohub,2013-08-24 11:39:00,
2013-08-24 07:44:00,61.9,56.3,30.24,SSE,150,6.0,15.0,82,0.00,,,0.00,meteohub,2013-08-24 11:44:00,
2013-08-24 07:49:00,62.1,55.8,30.24,North,0,6.0,15.0,80,0.00,,,0.00,meteohub,2013-08-24 11:49:00,
2013-08-24 07:54:00,62.2,56.3,30.24,SSE,154,11.0,15.0,81,0.00,,,0.00,meteohub,2013-08-24 11:54:00,
2013-08-24 07:59:00,62.4,56.1,30.24,SSE,161,5.0,14.0,80,0.00,,,0.00,meteohub,2013-08-24 11:59:00,
2013-08-24 08:04:00,62.4,56.1,30.25,SSE,149,10.0,14.0,80,0.00,,,0.00,meteohub,2013-08-24 12:04:00,
2013-08-24 08:09:00,62.8,56.1,30.25,North,0,8.0,13.0,79,0.00,,,0.00,meteohub,2013-08-24 12:09:00,
2013-08-24 08:14:00,63.1,56.5,30.25,SSE,148,10.0,13.0,79,0.00,,,0.00,meteohub,2013-08-24 12:14:00,
2013-08-24 08:19:00,63.3,56.7,30.25,North,0,10.0,13.0,79,0.00,,,0.00,meteohub,2013-08-24 12:19:00,
2013-08-24 08:24:00,63.7,56.7,30.25,SSE,152,7.0,15.0,78,0.00,,,0.00,meteohub,2013-08-24 12:24:00,
2013-08-24 08:29:00,64.0,57.0,30.26,SSE,159,9.0,15.0,78,0.00,,,0.00,meteohub,2013-08-24 12:29:00,
2013-08-24 08:34:00,64.2,56.8,30.26,SSE,162,10.0,15.0,77,0.00,,,0.00,meteohub,2013-08-24 12:34:00,
2013-08-24 08:40:00,64.4,57.0,30.26,SE,140,10.0,14.0,77,0.00,,,0.00,meteohub,2013-08-24 12:40:00,
2013-08-24 08:45:00,64.6,57.9,30.26,North,0,6.0,14.0,79,0.00,,,0.00,meteohub,2013-08-24 12:45:00,
2013-08-24 08:50:00,64.8,57.4,30.26,SSE,164,7.0,14.0,77,0.00,,,0.00,meteohub,2013-08-24 12:50:00,
2013-08-24 08:55:00,65.1,57.7,30.26,SSE,166,7.0,14.0,77,0.00,,,0.00,meteohub,2013-08-24 12:55:00,
2013-08-24 09:00:00,65.5,58.1,30.27,SE,135,7.0,13.0,77,0.00,,,0.00,meteohub,2013-08-24 13:00:00,
2013-08-24 09:05:00,65.7,57.9,30.26,SSE,153,9.0,14.0,76,0.00,,,0.00,meteohub,2013-08-24 13:05:00,
2013-08-24 09:11:00,65.7,57.9,30.27,SSE,152,8.0,14.0,76,0.00,,,0.00,meteohub,2013-08-24 13:11:00,
2013-08-24 09:16:00,65.8,58.1,30.27,SE,138,6.0,14.0,76,0.00,,,0.00,meteohub,2013-08-24 13:16:00,
2013-08-24 09:21:00,66.2,58.5,30.27,SSE,153,6.0,14.0,76,0.00,,,0.00,meteohub,2013-08-24 13:21:00,
2013-08-24 09:26:00,66.6,58.8,30.27,South,172,6.0,13.0,76,0.00,,,0.00,meteohub,2013-08-24 13:26:00,
2013-08-24 09:31:00,66.6,58.5,30.27,North,0,5.0,11.0,75,0.00,,,0.00,meteohub,2013-08-24 13:31:00,
2013-08-24 09:36:00,66.9,59.2,30.27,SSE,159,6.0,10.0,76,0.00,,,0.00,meteohub,2013-08-24 13:36:00,
2013-08-24 09:42:00,67.3,59.0,30.27,SE,138,5.0,10.0,75,0.00,,,0.00,meteohub,2013-08-24 13:42:00,
2013-08-24 09:47:00,67.5,58.8,30.27,SSE,153,5.0,10.0,74,0.00,,,0.00,meteohub,2013-08-24 13:47:00,
2013-08-24 09:52:00,67.8,59.2,30.27,ESE,117,4.0,10.0,74,0.00,,,0.00,meteohub,2013-08-24 13:52:00,
2013-08-24 09:57:00,68.2,59.5,30.27,ESE,117,4.0,7.0,74,0.00,,,0.00,meteohub,2013-08-24 13:57:00,
2013-08-24 10:02:00,68.5,59.5,30.27,ESE,117,0.0,6.0,73,0.00,,,0.00,meteohub,2013-08-24 14:02:00,
2013-08-24 10:07:00,69.3,59.5,30.28,ESE,117,0.0,6.0,71,0.00,,,0.00,meteohub,2013-08-24 14:07:00,
2013-08-24 10:12:00,69.8,59.2,30.28,ESE,117,0.0,5.0,69,0.00,,,0.00,meteohub,2013-08-24 14:12:00,
2013-08-24 10:17:00,69.6,59.7,30.27,ESE,117,0.0,1.0,71,0.00,,,0.00,meteohub,2013-08-24 14:17:00,
2013-08-24 10:22:00,69.4,60.1,30.27,NE,52,4.0,4.0,72,0.00,,,0.00,meteohub,2013-08-24 14:22:00,
2013-08-24 10:27:00,69.1,59.7,30.27,NNW,348,4.0,6.0,72,0.00,,,0.00,meteohub,2013-08-24 14:27:00,
2013-08-24 10:32:00,68.7,59.4,30.27,NNW,348,4.0,6.0,72,0.00,,,0.00,meteohub,2013-08-24 14:32:00,
2013-08-24 10:37:00,68.7,60.1,30.27,North,355,4.0,6.0,74,0.00,,,0.00,meteohub,2013-08-24 14:37:00,
2013-08-24 10:42:00,68.7,60.1,30.27,North,5,5.0,6.0,74,0.00,,,0.00,meteohub,2013-08-24 14:42:00,
2013-08-24 10:47:00,68.7,60.1,30.27,NNE,16,5.0,7.0,74,0.00,,,0.00,meteohub,2013-08-24 14:47:00,
2013-08-24 10:52:00,68.9,59.2,30.27,NNE,15,5.0,7.0,71,0.00,,,0.00,meteohub,2013-08-24 14:52:00,
2013-08-24 10:57:00,69.3,59.0,30.27,North,11,7.0,7.0,70,0.00,,,0.00,meteohub,2013-08-24 14:57:00,
2013-08-24 11:02:00,69.3,59.9,30.27,North,5,6.0,10.0,72,0.00,,,0.00,meteohub,2013-08-24 15:02:00,
2013-08-24 11:07:00,69.1,61.5,30.27,North,355,11.0,11.0,77,0.00,,,0.00,meteohub,2013-08-24 15:07:00,
2013-08-24 11:12:00,68.5,60.6,30.27,North,355,11.0,11.0,76,0.00,,,0.00,meteohub,2013-08-24 15:12:00,
2013-08-24 11:17:00,68.4,60.4,30.27,NNW,337,11.0,12.0,76,0.00,,,0.00,meteohub,2013-08-24 15:17:00,
2013-08-24 11:22:00,68.4,61.5,30.27,NNW,348,13.0,13.0,79,0.00,,,0.00,meteohub,2013-08-24 15:22:00,
2013-08-24 11:27:00,68.5,61.3,30.28,NNW,338,11.0,13.0,78,0.00,,,0.00,meteohub,2013-08-24 15:27:00,
2013-08-24 11:32:00,68.5,60.6,30.28,North,5,10.0,13.0,76,0.00,,,0.00,meteohub,2013-08-24 15:32:00,
2013-08-24 11:37:00,69.1,61.5,30.27,NNE,22,12.0,13.0,77,0.00,,,0.00,meteohub,2013-08-24 15:37:00,
2013-08-24 11:42:00,69.1,60.8,30.27,NNE,26,12.0,14.0,75,0.00,,,0.00,meteohub,2013-08-24 15:42:00,
2013-08-24 11:47:00,69.1,61.9,30.27,NNE,26,13.0,14.0,78,0.00,,,0.00,meteohub,2013-08-24 15:47:00,
2013-08-24 11:52:00,68.9,61.3,30.27,NNE,12,12.0,14.0,77,0.00,,,0.00,meteohub,2013-08-24 15:52:00,
2013-08-24 11:57:00,68.9,61.3,30.27,NNE,24,10.0,14.0,77,0.00,,,0.00,meteohub,2013-08-24 15:57:00,
2013-08-24 12:02:00,68.9,61.3,30.27,NE,40,7.0,14.0,77,0.00,,,0.00,meteohub,2013-08-24 16:02:00,
2013-08-24 12:07:00,69.1,61.5,30.27,NNE,26,13.0,14.0,77,0.00,,,0.00,meteohub,2013-08-24 16:07:00,
2013-08-24 12:12:00,69.1,61.9,30.27,NNE,32,13.0,14.0,78,0.00,,,0.00,meteohub,2013-08-24 16:12:00,
2013-08-24 12:17:00,69.1,61.9,30.27,NNE,23,10.0,16.0,78,0.00,,,0.00,meteohub,2013-08-24 16:17:00,
2013-08-24 12:22:00,69.3,61.7,30.27,NNE,29,14.0,16.0,77,0.00,,,0.00,meteohub,2013-08-24 16:22:00,
2013-08-24 12:27:00,69.3,62.8,30.27,NE,35,13.0,15.0,80,0.00,,,0.00,meteohub,2013-08-24 16:27:00,
2013-08-24 12:32:00,69.1,62.6,30.27,NNE,16,13.0,16.0,80,0.00,,,0.00,meteohub,2013-08-24 16:32:00,
2013-08-24 12:37:00,68.9,62.4,30.27,NNE,19,13.0,16.0,80,0.00,,,0.00,meteohub,2013-08-24 16:37:00,
2013-08-24 12:42:00,68.7,62.2,30.27,NNE,24,14.0,16.0,80,0.00,,,0.00,meteohub,2013-08-24 16:42:00,
2013-08-24 12:47:00,69.1,61.9,30.27,NNE,15,12.0,16.0,78,0.00,,,0.00,meteohub,2013-08-24 16:47:00,
2013-08-24 12:52:00,69.1,62.2,30.27,NNE,22,13.0,15.0,79,0.00,,,0.00,meteohub,2013-08-24 16:52:00,
2013-08-24 12:57:00,69.1,62.6,30.26,NNE,23,13.0,15.0,80,0.00,,,0.00,meteohub,2013-08-24 16:57:00,
2013-08-24 13:02:00,69.3,62.1,30.26,NNE,26,15.0,15.0,78,0.00,,,0.00,meteohub,2013-08-24 17:02:00,
2013-08-24 13:07:00,69.3,63.1,30.26,NNE,17,16.0,16.0,81,0.00,,,0.00,meteohub,2013-08-24 17:07:00,
2013-08-24 13:12:00,69.4,63.0,30.26,NNE,33,16.0,17.0,80,0.00,,,0.00,meteohub,2013-08-24 17:12:00,
2013-08-24 13:17:00,69.4,63.0,30.26,North,0,13.0,17.0,80,0.00,,,0.00,meteohub,2013-08-24 17:17:00,
2013-08-24 13:22:00,69.4,62.6,30.26,North,0,15.0,17.0,79,0.00,,,0.00,meteohub,2013-08-24 17:22:00,
2013-08-24 13:27:00,69.4,62.2,30.26,North,0,12.0,17.0,78,0.00,,,0.00,meteohub,2013-08-24 17:27:00,
2013-08-24 13:32:00,69.6,62.8,30.26,NNE,29,14.0,17.0,79,0.00,,,0.00,meteohub,2013-08-24 17:32:00,
2013-08-24 13:37:00,69.6,62.8,30.26,North,0,13.0,16.0,79,0.00,,,0.00,meteohub,2013-08-24 17:37:00,
2013-08-24 13:42:00,69.6,61.7,30.26,North,0,15.0,16.0,76,0.00,,,0.00,meteohub,2013-08-24 17:42:00,
2013-08-24 13:47:00,69.8,62.2,30.26,NE,51,16.0,16.0,77,0.00,,,0.00,meteohub,2013-08-24 17:47:00,
2013-08-24 13:52:00,70.0,62.4,30.26,NE,47,13.0,18.0,77,0.00,,,0.00,meteohub,2013-08-24 17:52:00,
2013-08-24 13:57:00,70.0,62.4,30.26,NE,51,14.0,18.0,77,0.00,,,0.00,meteohub,2013-08-24 17:57:00,
2013-08-24 14:02:00,70.0,62.4,30.26,ENE,62,13.0,18.0,77,0.00,,,0.00,meteohub,2013-08-24 18:02:00,
2013-08-24 14:07:00,70.0,62.4,30.26,ENE,62,13.0,16.0,77,0.00,,,0.00,meteohub,2013-08-24 18:07:00,
2013-08-24 14:12:00,70.0,63.1,30.25,ENE,57,14.0,15.0,79,0.00,,,0.00,meteohub,2013-08-24 18:12:00,
2013-08-24 14:17:00,70.2,62.6,30.26,NE,47,16.0,16.0,77,0.00,,,0.00,meteohub,2013-08-24 18:17:00,
2013-08-24 14:22:00,70.2,62.6,30.25,ENE,63,15.0,16.0,77,0.00,,,0.00,meteohub,2013-08-24 18:22:00,
2013-08-24 14:27:00,70.2,62.2,30.25,ENE,58,13.0,16.0,76,0.00,,,0.00,meteohub,2013-08-24 18:27:00,
2013-08-24 14:32:00,70.2,62.6,30.25,ENE,59,14.0,16.0,77,0.00,,,0.00,meteohub,2013-08-24 18:32:00,
2013-08-24 14:37:00,70.2,62.6,30.25,NE,50,14.0,17.0,77,0.00,,,0.00,meteohub,2013-08-24 18:37:00,
2013-08-24 14:42:00,70.2,62.2,30.25,NE,52,16.0,17.0,76,0.00,,,0.00,meteohub,2013-08-24 18:42:00,
2013-08-24 14:47:00,70.2,62.2,30.25,ENE,69,14.0,17.0,76,0.00,,,0.00,meteohub,2013-08-24 18:47:00,
2013-08-24 14:52:00,70.3,62.8,30.25,ENE,59,12.0,17.0,77,0.00,,,0.00,meteohub,2013-08-24 18:52:00,
2013-08-24 14:57:00,70.2,61.9,30.25,ENE,63,13.0,18.0,75,0.00,,,0.00,meteohub,2013-08-24 18:57:00,
2013-08-24 15:02:00,70.3,62.1,30.25,NE,51,14.0,18.0,75,0.00,,,0.00,meteohub,2013-08-24 19:02:00,
2013-08-24 15:07:00,70.3,63.5,30.25,ENE,62,16.0,18.0,79,0.00,,,0.00,meteohub,2013-08-24 19:07:00,
2013-08-24 15:12:00,70.3,62.8,30.24,NE,51,16.0,17.0,77,0.00,,,0.00,meteohub,2013-08-24 19:12:00,
2013-08-24 15:17:00,70.5,63.7,30.24,ENE,59,17.0,17.0,79,0.00,,,0.00,meteohub,2013-08-24 19:17:00,
2013-08-24 15:23:00,70.3,63.5,30.24,NE,55,11.0,17.0,79,0.00,,,0.00,meteohub,2013-08-24 19:23:00,
2013-08-24 15:28:00,70.3,63.1,30.24,NE,55,19.0,19.0,78,0.00,,,0.00,meteohub,2013-08-24 19:28:00,
2013-08-24 15:33:00,70.3,62.8,30.25,NE,55,16.0,19.0,77,0.00,,,0.00,meteohub,2013-08-24 19:33:00,
2013-08-24 15:38:00,70.5,63.0,30.24,NE,52,15.0,19.0,77,0.00,,,0.00,meteohub,2013-08-24 19:38:00,
2013-08-24 15:43:00,70.5,63.0,30.24,NE,52,16.0,19.0,77,0.00,,,0.00,meteohub,2013-08-24 19:43:00,
2013-08-24 15:48:00,70.5,63.3,30.24,NE,51,17.0,18.0,78,0.00,,,0.00,meteohub,2013-08-24 19:48:00,
2013-08-24 15:53:00,70.5,63.3,30.24,ENE,61,18.0,19.0,78,0.00,,,0.00,meteohub,2013-08-24 19:53:00,
2013-08-24 15:59:00,70.5,63.7,30.24,ENE,59,15.0,19.0,79,0.00,,,0.00,meteohub,2013-08-24 19:59:00,
2013-08-24 16:04:00,70.5,63.0,30.24,ENE,71,16.0,19.0,77,0.00,,,0.00,meteohub,2013-08-24 20:04:00,
2013-08-24 16:09:00,70.5,63.7,30.24,ENE,73,14.0,19.0,79,0.00,,,0.00,meteohub,2013-08-24 20:09:00,
2013-08-24 16:14:00,70.7,63.5,30.24,NE,56,14.0,19.0,78,0.00,,,0.00,meteohub,2013-08-24 20:14:00,
2013-08-24 16:19:00,70.5,63.0,30.24,ENE,72,15.0,18.0,77,0.00,,,0.00,meteohub,2013-08-24 20:19:00,
2013-08-24 16:25:00,70.5,63.3,30.24,ENE,61,15.0,18.0,78,0.00,,,0.00,meteohub,2013-08-24 20:25:00,
2013-08-24 16:30:00,70.7,63.1,30.24,ENE,62,15.0,18.0,77,0.00,,,0.00,meteohub,2013-08-24 20:30:00,
2013-08-24 16:35:00,70.7,63.9,30.24,ENE,71,16.0,18.0,79,0.00,,,0.00,meteohub,2013-08-24 20:35:00,
2013-08-24 16:40:00,70.7,63.9,30.24,ENE,72,16.0,18.0,79,0.00,,,0.00,meteohub,2013-08-24 20:40:00,
2013-08-24 16:45:00,70.9,63.3,30.24,ENE,58,17.0,18.0,77,0.00,,,0.00,meteohub,2013-08-24 20:45:00,
2013-08-24 16:50:00,70.9,63.7,30.23,ENE,72,15.0,18.0,78,0.00,,,0.00,meteohub,2013-08-24 20:50:00,
2013-08-24 16:55:00,70.9,63.3,30.23,ENE,63,17.0,18.0,77,0.00,,,0.00,meteohub,2013-08-24 20:55:00,
2013-08-24 17:01:00,70.9,63.3,30.23,ENE,68,17.0,19.0,77,0.00,,,0.00,meteohub,2013-08-24 21:01:00,
2013-08-24 17:06:00,71.1,64.6,30.22,ENE,66,16.0,19.0,80,0.00,,,0.00,meteohub,2013-08-24 21:06:00,
2013-08-24 17:11:00,71.1,64.2,30.23,ENE,74,16.0,19.0,79,0.00,,,0.00,meteohub,2013-08-24 21:11:00,
2013-08-24 17:16:00,71.1,63.1,30.23,ENE,63,15.0,19.0,76,0.00,,,0.00,meteohub,2013-08-24 21:16:00,
2013-08-24 17:21:00,71.1,63.5,30.23,NE,53,14.0,18.0,77,0.00,,,0.00,meteohub,2013-08-24 21:21:00,
2013-08-24 17:26:00,71.1,64.2,30.23,ENE,65,15.0,18.0,79,0.00,,,0.00,meteohub,2013-08-24 21:26:00,
2013-08-24 17:31:00,71.2,63.7,30.23,ENE,70,17.0,18.0,77,0.00,,,0.00,meteohub,2013-08-24 21:31:00,
2013-08-24 17:36:00,71.2,64.4,30.23,ENE,65,15.0,17.0,79,0.00,,,0.00,meteohub,2013-08-24 21:36:00,
2013-08-24 17:41:00,71.4,63.1,30.23,ENE,61,15.0,17.0,75,0.00,,,0.00,meteohub,2013-08-24 21:41:00,
2013-08-24 17:47:00,71.4,63.1,30.23,ENE,68,13.0,17.0,75,0.00,,,0.00,meteohub,2013-08-24 21:47:00,
2013-08-24 17:52:00,71.8,64.2,30.23,ENE,71,13.0,17.0,77,0.00,,,0.00,meteohub,2013-08-24 21:52:00,
2013-08-24 17:57:00,71.8,63.9,30.23,ENE,72,13.0,17.0,76,0.00,,,0.00,meteohub,2013-08-24 21:57:00,
2013-08-24 18:02:00,71.8,63.5,30.23,ENE,66,13.0,17.0,75,0.00,,,0.00,meteohub,2013-08-24 22:02:00,
2013-08-24 18:07:00,71.8,63.5,30.23,ENE,65,13.0,17.0,75,0.00,,,0.00,meteohub,2013-08-24 22:07:00,
2013-08-24 18:12:00,71.8,62.6,30.23,ENE,65,15.0,17.0,73,0.00,,,0.00,meteohub,2013-08-24 22:12:00,
2013-08-24 18:17:00,71.8,63.0,30.23,ENE,60,14.0,17.0,74,0.00,,,0.00,meteohub,2013-08-24 22:17:00,
2013-08-24 18:22:00,72.0,63.7,30.24,ENE,67,14.0,17.0,75,0.00,,,0.00,meteohub,2013-08-24 22:22:00,
2013-08-24 18:27:00,72.0,62.8,30.24,ENE,65,16.0,17.0,73,0.00,,,0.00,meteohub,2013-08-24 22:27:00,
2013-08-24 18:32:00,72.0,62.1,30.24,NE,52,14.0,17.0,71,0.00,,,0.00,meteohub,2013-08-24 22:32:00,
2013-08-24 18:37:00,72.1,64.2,30.24,ENE,58,17.0,18.0,76,0.00,,,0.00,meteohub,2013-08-24 22:37:00,
2013-08-24 18:42:00,72.0,62.8,30.24,NE,56,19.0,19.0,73,0.00,,,0.00,meteohub,2013-08-24 22:42:00,
2013-08-24 18:47:00,72.0,62.8,30.24,ENE,61,15.0,19.0,73,0.00,,,0.00,meteohub,2013-08-24 22:47:00,
2013-08-24 18:52:00,72.0,62.8,30.24,ENE,67,13.0,19.0,73,0.00,,,0.00,meteohub,2013-08-24 22:52:00,
2013-08-24 18:57:00,72.1,63.3,30.24,ENE,63,16.0,19.0,74,0.00,,,0.00,meteohub,2013-08-24 22:57:00,
2013-08-24 19:02:00,72.1,63.3,30.23,ENE,67,15.0,19.0,74,0.00,,,0.00,meteohub,2013-08-24 23:02:00,
2013-08-24 19:07:00,72.1,64.2,30.23,ENE,60,16.0,19.0,76,0.00,,,0.00,meteohub,2013-08-24 23:07:00,
2013-08-24 19:12:00,72.1,63.9,30.23,ENE,64,15.0,18.0,75,0.00,,,0.00,meteohub,2013-08-24 23:12:00,
2013-08-24 19:18:00,72.1,63.0,30.23,ENE,71,15.0,17.0,73,0.00,,,0.00,meteohub,2013-08-24 23:18:00,
2013-08-24 19:23:00,72.1,64.2,30.22,East,82,12.0,17.0,76,0.00,,,0.00,meteohub,2013-08-24 23:23:00,
2013-08-24 19:28:00,72.3,63.9,30.23,ENE,73,13.0,17.0,75,0.00,,,0.00,meteohub,2013-08-24 23:28:00,
2013-08-24 19:33:00,72.3,63.5,30.23,ENE,77,12.0,17.0,74,0.00,,,0.00,meteohub,2013-08-24 23:33:00,
2013-08-24 19:38:00,72.3,63.5,30.23,ENE,67,13.0,15.0,74,0.00,,,0.00,meteohub,2013-08-24 23:38:00,
2013-08-24 19:43:00,72.3,63.1,30.23,ENE,74,14.0,16.0,73,0.00,,,0.00,meteohub,2013-08-24 23:43:00,
2013-08-24 19:48:00,72.3,63.5,30.23,ENE,78,12.0,16.0,74,0.00,,,0.00,meteohub,2013-08-24 23:48:00,
2013-08-24 19:53:00,72.3,63.1,30.23,ENE,73,14.0,15.0,73,0.00,,,0.00,meteohub,2013-08-24 23:53:00,
2013-08-24 19:58:00,72.3,63.5,30.24,ENE,63,14.0,16.0,74,0.00,,,0.00,meteohub,2013-08-24 23:58:00,
2013-08-24 20:03:00,72.5,64.0,30.24,ENE,69,14.0,16.0,75,0.00,,,0.00,meteohub,2013-08-25 00:03:00,
2013-08-24 20:08:00,72.5,64.9,30.24,ENE,71,14.0,15.0,77,0.00,,,0.00,meteohub,2013-08-25 00:08:00,
2013-08-24 20:13:00,72.3,64.4,30.24,East,83,9.0,16.0,76,0.00,,,0.00,meteohub,2013-08-25 00:13:00,
2013-08-24 20:18:00,72.3,64.8,30.24,East,82,10.0,16.0,77,0.00,,,0.00,meteohub,2013-08-25 00:18:00,
2013-08-24 20:24:00,72.1,63.9,30.24,North,0,7.0,16.0,75,0.00,,,0.00,meteohub,2013-08-25 00:24:00,
2013-08-24 20:29:00,71.8,63.9,30.24,East,101,9.0,16.0,76,0.00,,,0.00,meteohub,2013-08-25 00:29:00,
2013-08-24 20:34:00,71.8,63.5,30.24,East,96,7.0,13.0,75,0.00,,,0.00,meteohub,2013-08-25 00:34:00,
2013-08-24 20:39:00,71.8,64.2,30.24,East,99,5.0,10.0,77,0.00,,,0.00,meteohub,2013-08-25 00:39:00,
2013-08-24 20:44:00,71.6,63.7,30.24,ESE,102,6.0,10.0,76,0.00,,,0.00,meteohub,2013-08-25 00:44:00,
2013-08-24 20:49:00,71.2,63.7,30.24,ESE,104,7.0,10.0,77,0.00,,,0.00,meteohub,2013-08-25 00:49:00,
2013-08-24 20:54:00,71.2,63.3,30.24,North,0,5.0,8.0,76,0.00,,,0.00,meteohub,2013-08-25 00:54:00,
2013-08-24 20:59:00,71.2,63.7,30.24,North,0,5.0,9.0,77,0.00,,,0.00,meteohub,2013-08-25 00:59:00,
2013-08-24 21:04:00,71.2,63.3,30.25,East,95,6.0,9.0,76,0.00,,,0.00,meteohub,2013-08-25 01:04:00,
2013-08-24 21:09:00,71.1,63.1,30.25,ESE,103,4.0,9.0,76,0.00,,,0.00,meteohub,2013-08-25 01:09:00,
2013-08-24 21:14:00,71.1,63.5,30.25,East,96,4.0,7.0,77,0.00,,,0.00,meteohub,2013-08-25 01:14:00,
2013-08-24 21:19:00,71.1,63.5,30.25,East,99,3.0,7.0,77,0.00,,,0.00,meteohub,2013-08-25 01:19:00,
2013-08-24 21:25:00,70.9,63.7,30.25,ESE,102,4.0,7.0,78,0.00,,,0.00,meteohub,2013-08-25 01:25:00,
2013-08-24 21:30:00,70.9,63.0,30.25,ESE,103,2.0,6.0,76,0.00,,,0.00,meteohub,2013-08-25 01:30:00,
2013-08-24 21:35:00,70.5,62.6,30.25,ESE,103,4.0,6.0,76,0.00,,,0.00,meteohub,2013-08-25 01:35:00,
2013-08-24 21:40:00,70.3,62.8,30.25,ESE,105,4.0,6.0,77,0.00,,,0.00,meteohub,2013-08-25 01:40:00,
2013-08-24 21:45:00,70.3,62.4,30.25,ESE,107,3.0,6.0,76,0.00,,,0.00,meteohub,2013-08-25 01:45:00,
2013-08-24 21:50:00,70.2,62.2,30.25,ESE,111,2.0,5.0,76,0.00,,,0.00,meteohub,2013-08-25 01:50:00,
2013-08-24 21:55:00,70.0,62.1,30.25,ESE,117,4.0,6.0,76,0.00,,,0.00,meteohub,2013-08-25 01:55:00,
2013-08-24 22:00:00,69.8,61.9,30.25,ESE,121,5.0,6.0,76,0.00,,,0.00,meteohub,2013-08-25 02:00:00,
2013-08-24 22:05:00,69.6,62.1,30.25,SE,127,4.0,5.0,77,0.00,,,0.00,meteohub,2013-08-25 02:05:00,
2013-08-24 22:10:00,69.4,61.5,30.25,SE,138,4.0,7.0,76,0.00,,,0.00,meteohub,2013-08-25 02:10:00,
2013-08-24 22:15:00,69.3,61.7,30.24,SE,142,0.0,7.0,77,0.00,,,0.00,meteohub,2013-08-25 02:15:00,
2013-08-24 22:21:00,68.7,61.5,30.25,SE,139,2.0,7.0,78,0.00,,,0.00,meteohub,2013-08-25 02:21:00,
2013-08-24 22:26:00,68.5,61.3,30.25,SE,140,0.0,5.0,78,0.00,,,0.00,meteohub,2013-08-25 02:26:00,
2013-08-24 22:31:00,68.5,61.7,30.25,SE,140,0.0,4.0,79,0.00,,,0.00,meteohub,2013-08-25 02:31:00,
2013-08-24 22:36:00,68.4,61.5,30.25,SE,141,0.0,3.0,79,0.00,,,0.00,meteohub,2013-08-25 02:36:00,
2013-08-24 22:41:00,67.8,61.0,30.25,SE,142,0.0,0.0,79,0.00,,,0.00,meteohub,2013-08-25 02:41:00,
2013-08-24 22:46:00,67.8,61.0,30.25,SE,142,0.0,0.0,79,0.00,,,0.00,meteohub,2013-08-25 02:46:00,
2013-08-24 22:51:00,67.3,61.0,30.25,SE,143,0.0,0.0,80,0.00,,,0.00,meteohub,2013-08-25 02:51:00,
2013-08-24 22:56:00,67.1,60.4,30.25,SE,143,0.0,0.0,79,0.00,,,0.00,meteohub,2013-08-25 02:56:00,
2013-08-24 23:01:00,66.9,60.3,30.25,SE,143,0.0,0.0,79,0.00,,,0.00,meteohub,2013-08-25 03:01:00,
2013-08-24 23:06:00,67.1,60.4,30.25,SE,142,0.0,0.0,79,0.00,,,0.00,meteohub,2013-08-25 03:06:00,
2013-08-24 23:11:00,67.1,60.4,30.25,SE,142,0.0,1.0,79,0.00,,,0.00,meteohub,2013-08-25 03:11:00,
2013-08-24 23:16:00,66.9,61.0,30.25,SE,142,0.0,1.0,81,0.00,,,0.00,meteohub,2013-08-25 03:16:00,
2013-08-24 23:21:00,66.7,61.0,30.25,SE,142,0.0,1.0,82,0.00,,,0.00,meteohub,2013-08-25 03:21:00,
2013-08-24 23:26:00,66.9,61.0,30.25,SE,142,0.0,0.0,81,0.00,,,0.00,meteohub,2013-08-25 03:26:00,
2013-08-24 23:32:00,66.7,60.8,30.25,SE,141,0.0,3.0,81,0.00,,,0.00,meteohub,2013-08-25 03:32:00,
2013-08-24 23:37:00,66.6,60.3,30.25,SE,138,0.0,5.0,80,0.00,,,0.00,meteohub,2013-08-25 03:37:00,
2013-08-24 23:42:00,66.4,60.4,30.25,North,0,0.0,5.0,81,0.00,,,0.00,meteohub,2013-08-25 03:42:00,
2013-08-24 23:47:00,66.0,60.4,30.25,North,0,0.0,5.0,82,0.00,,,0.00,meteohub,2013-08-25 03:47:00,
2013-08-24 23:52:00,66.0,60.6,30.25,SE,146,3.0,5.0,83,0.00,,,0.00,meteohub,2013-08-25 03:52:00,
2013-08-24 23:57:00,66.0,60.4,30.25,SSE,164,6.0,7.0,82,0.00,,,0.00,meteohub,2013-08-25 03:57:00,